Weather History for Guymon, OK

Change the Weather History Date:

Saturday, September 17, 2011

  Actual Average Record
Temperature  
Mean Temperature 77 °F 70 °F  
Max Temperature 93 °F 85 °F 102 °F (2004)
Min Temperature 61 °F 55 °F 46 °F (2006)
Degree Days  
Heating Degree Days 0 1  
Month to date heating degree days 12 7  
Since 1 July heating degree days 12 8  
Cooling Degree Days 12 6  
Month to date cooling degree days 130 148  
Year to date cooling degree days 2061 1397  
Growing Degree Days 26 (Base 50)    
Moisture  
Dew Point 57 °F    
Average Humidity 63    
Maximum Humidity 100    
Minimum Humidity 26    
Precipitation  
Precipitation 0.00 in 0.06 in 0.45 in (2001)
Month to date precipitation 0.55 1.05  
Year to date precipitation 5.55 15.82  
Snow  
Snow 0.00 in - - ()
Month to date snowfall 0.0  
Since 1 July snowfall 0.0  
Since 1 September snowfall 0.0  
Snow Depth 0.00 in    
Sea Level Pressure  
Sea Level Pressure 29.77 in    
Wind  
Wind Speed 13 mph (SW)    
Max Wind Speed 25 mph    
Max Gust Speed 31 mph    
Visibility 8 miles    
Events      
T = Trace of Precipitation, MM = Missing Value Source: NWS Daily Summary

Daily Weather History Graph

Daily Weather History Graph

Search for Another Location

Airport:

Trip Planner

Search our weather history database for the weather conditions in past years. The results will help you decide how hot, cold, wet, or windy it might be!

Date:

Astronomy

Sep. 17, 2011 Rise Set
Actual Time 7:29 AM CDT 7:50 PM CDT
Civil Twilight 7:03 AM CDT 8:16 PM CDT
Nautical Twilight 6:33 AM CDT 8:46 PM CDT
Astronomical Twilight 6:02 AM CDT 9:17 PM CDT
Moon 10:32 PM CDT (9/17) 12:23 PM CDT (9/17)
Length of Visible Light 13h 12m
Length of Day
12h 21m
Waning Gibbous, 76% of the Moon is Illuminated
Sep 17
Waning Gibbous
Sep 20
Last Quarter
Sep 27
New
Oct 3
First Quarter
Oct 11
Full

Hourly Weather History & Observations

Time (CDT) Temp. Heat Index Dew Point Humidity Pressure Visibility Wind Dir Wind Speed Gust Speed Precip Events Conditions
12:53 AM 64.0 °F - 63.0 °F 96% 29.84 in 7.0 mi South 15.0 mph - N/A   Clear
1:53 AM 64.0 °F - 64.0 °F 100% 29.82 in 5.0 mi South 15.0 mph - N/A   Clear
2:53 AM 64.0 °F - 64.0 °F 100% 29.81 in 5.0 mi South 13.8 mph - N/A   Clear
3:53 AM 63.0 °F - 63.0 °F 100% 29.81 in 4.0 mi South 12.7 mph - N/A   Clear
4:53 AM 63.0 °F - 63.0 °F 100% 29.82 in 3.0 mi South 12.7 mph - N/A   Clear
6:08 AM 62.6 °F - 62.6 °F 100% 29.93 in 3.0 mi SSW 13.8 mph - N/A   Clear
7:53 AM 61.0 °F - 61.0 °F 100% 29.84 in 4.0 mi SW 10.4 mph - N/A   Clear
8:53 AM 64.0 °F - 61.0 °F 90% 29.84 in 10.0 mi SW 9.2 mph - N/A   Clear
9:53 AM 69.1 °F - 59.0 °F 70% 29.83 in 10.0 mi WSW 9.2 mph - N/A   Clear
10:53 AM 73.0 °F - 55.9 °F 55% 29.82 in 10.0 mi West 8.1 mph - N/A   Clear
11:53 AM 80.1 °F 80.4 °F 57.0 °F 45% 29.81 in 10.0 mi Variable 5.8 mph - N/A   Clear
12:53 PM 84.9 °F 83.3 °F 54.0 °F 34% 29.77 in 10.0 mi South 5.8 mph - N/A   Clear
1:53 PM 89.1 °F 86.7 °F 53.1 °F 29% 29.73 in 10.0 mi SW 12.7 mph 24.2 mph N/A   Clear
2:53 PM 91.0 °F - 52.0 °F 26% 29.70 in 10.0 mi SW 16.1 mph 27.6 mph N/A   Clear
3:53 PM 91.9 °F 89.5 °F 53.1 °F 27% 29.68 in 10.0 mi SW 13.8 mph 25.3 mph N/A   Partly Cloudy
4:53 PM 91.9 °F - 52.0 °F 26% 29.66 in 10.0 mi SW 20.7 mph 27.6 mph N/A   Scattered Clouds
5:53 PM 90.0 °F - 50.0 °F 25% 29.66 in 10.0 mi SW 20.7 mph 27.6 mph N/A   Scattered Clouds
7:53 PM 82.0 °F - 51.1 °F 34% 29.69 in 10.0 mi SSW 12.7 mph - N/A   Clear
8:53 PM 77.0 °F - 53.1 °F 43% 29.70 in 10.0 mi SSW 11.5 mph - N/A   Mostly Cloudy
9:53 PM 71.1 °F - 54.0 °F 55% 29.73 in 10.0 mi WNW 6.9 mph - N/A   Clear
10:53 PM 71.1 °F - 52.0 °F 51% 29.72 in 10.0 mi SW 11.5 mph - N/A   Clear
11:53 PM 71.1 °F - 53.1 °F 53% 29.73 in 10.0 mi West 17.3 mph 23.0 mph N/A   Clear